Date String (YYYY-MM-DD hh:mm:ss) UTC,Instrument flags,Ambient pressure (hPa),Sample flow (lpm),Bypass flow (lpm),Sample temperature (°C),Ambient temperature (°C),ASC tube jacket temperature (°C),LED temperature (°C),Box temperature (°C),Sample RH (%),Span deviation,Mass concentration (μg/m³),Mass concentration (μg/m³),Mass concentration (μg/m³)
DateTimeUTC,F1_M11,P_M11,Q1_M11,Q2_M11,T1_M11,T2_M11,T3_M11,T4_M11,T5_M11,U1_M11,ZSPAN_M11,X2_M11,X0_M11,X1_M11
2023-02-15 21:00:00,,0822.4,5.00,0.00,23.0,21.1,00.0,32.0,24.6,07.4,0000.0,0002.48,0005.21,0002.09
2023-02-15 21:01:00,,0822.4,5.02,0.00,23.0,21.7,00.0,31.9,24.7,07.5,0000.0,0002.46,0004.77,0002.10
2023-02-15 21:02:00,,0822.4,4.97,0.00,23.1,22.8,00.0,31.9,25.0,07.4,0000.0,0002.49,0004.83,0002.12
2023-02-15 21:03:00,,0822.4,5.09,0.00,23.2,23.6,00.0,31.9,25.2,07.4,0000.0,0002.55,0004.89,0002.15
2023-02-15 21:04:00,,0822.5,5.02,0.00,23.3,23.2,00.0,32.0,25.1,07.4,0000.0,0002.59,0004.82,0002.17
2023-02-15 21:05:00,,0822.5,5.02,0.00,23.2,22.7,00.0,32.0,25.0,07.4,0000.0,0002.59,0005.05,0002.17
2023-02-15 21:06:00,,0822.5,5.00,0.00,23.2,22.2,00.0,32.0,24.9,07.4,0000.0,0002.63,0005.75,0002.19
2023-02-15 21:07:00,,0822.5,5.02,0.00,23.2,21.9,00.0,32.0,24.8,07.5,0000.0,0002.63,0005.03,0002.21
2023-02-15 21:08:00,,0822.5,4.99,0.00,23.1,21.6,00.0,32.0,24.8,07.5,0000.0,0002.64,0004.89,0002.23
2023-02-15 21:09:00,,0822.5,4.98,0.00,23.1,21.4,00.0,32.0,24.7,07.6,0000.0,0002.63,0004.59,0002.24
2023-02-15 21:10:00,,0822.5,5.01,0.00,23.0,21.2,00.0,32.0,24.7,07.6,0000.0,0002.63,0004.52,0002.25
2023-02-15 21:11:00,,0822.6,5.01,0.00,23.0,21.1,00.0,32.0,24.6,07.7,0000.0,0002.64,0004.56,0002.26
2023-02-15 21:12:00,,0822.6,5.00,0.00,23.0,21.5,00.0,31.9,24.7,07.8,0000.0,0002.65,0004.63,0002.24
2023-02-15 21:13:00,,0822.6,5.03,0.00,23.1,22.6,00.0,31.9,25.0,07.8,0000.0,0002.64,0004.62,0002.22
2023-02-15 21:14:00,,0822.6,4.99,0.00,23.2,23.2,00.0,31.9,25.1,07.7,0000.0,0002.65,0004.66,0002.21
2023-02-15 21:15:00,,0822.5,5.00,0.00,23.2,22.7,00.0,32.0,25.0,07.6,0000.0,0002.63,0004.64,0002.19
2023-02-15 21:16:00,,0822.5,5.01,0.00,23.2,22.3,00.0,32.0,24.9,07.6,0000.0,0002.62,0005.25,0002.18
2023-02-15 21:17:00,,0822.6,4.98,0.00,23.1,21.9,00.0,32.0,24.8,07.5,0000.0,0002.60,0005.49,0002.16
2023-02-15 21:18:00,,0822.6,4.99,0.00,23.1,21.6,00.0,32.0,24.7,07.6,0000.0,0002.59,0005.48,0002.14
2023-02-15 21:19:00,,0822.6,5.03,0.00,23.0,21.3,00.0,32.0,24.7,07.5,0000.0,0002.62,0005.54,0002.12
2023-02-15 21:20:00,,0822.6,4.99,0.00,23.0,21.2,00.0,32.0,24.6,07.4,0000.0,0002.62,0005.59,0002.11
2023-02-15 21:21:00,,0822.6,5.02,0.00,23.0,21.5,00.0,31.9,24.7,07.5,0000.0,0002.65,0005.75,0002.10
2023-02-15 21:22:00,,0822.6,5.01,0.00,23.1,22.6,00.0,31.9,24.9,07.5,0000.0,0002.68,0006.34,0002.10
2023-02-15 21:23:00,,0822.6,5.02,0.00,23.2,23.5,00.0,31.9,25.1,07.5,0000.0,0002.64,0006.60,0002.11
2023-02-15 21:24:00,,0822.6,5.01,0.00,23.3,23.4,00.0,31.9,25.1,07.5,0000.0,0002.65,0006.63,0002.12
2023-02-15 21:25:00,,0822.6,5.00,0.00,23.3,22.8,00.0,32.0,25.0,07.5,0000.0,0002.65,0007.37,0002.13
2023-02-15 21:26:00,,0822.6,5.02,0.00,23.2,22.4,00.0,32.0,24.9,07.5,0000.0,0002.64,0008.06,0002.14
2023-02-15 21:27:00,,0822.6,5.01,0.00,23.2,22.0,00.0,32.0,24.9,07.5,0000.0,0002.70,0007.65,0002.19
2023-02-15 21:28:00,,0822.6,4.99,0.00,23.1,21.7,00.0,32.0,24.8,07.5,0000.0,0002.81,0007.44,0002.24
2023-02-15 21:29:00,,0822.6,5.00,0.00,23.1,21.5,00.0,32.0,24.8,07.5,0000.0,0002.86,0007.69,0002.31
2023-02-15 21:30:00,,0822.6,4.98,0.00,23.1,21.3,00.0,32.0,24.7,07.5,0000.0,0002.91,0007.70,0002.37
2023-02-15 21:31:00,,0822.6,5.00,0.00,23.0,21.2,00.0,32.0,24.7,07.5,0000.0,0002.94,0007.66,0002.44
2023-02-15 21:32:00,,0822.6,5.00,0.00,23.0,21.0,00.0,32.0,24.6,07.5,0000.0,0002.96,0007.59,0002.50
2023-02-15 21:33:00,,0822.6,5.01,0.00,23.0,21.7,00.0,31.9,24.7,07.6,0000.0,0003.00,0007.21,0002.55
2023-02-15 21:34:00,,0822.6,4.95,0.00,23.1,22.8,00.0,31.9,25.0,07.6,0000.0,0003.09,0007.18,0002.59
2023-02-15 21:35:00,,0822.6,4.89,0.00,23.2,23.6,00.0,31.9,25.2,07.6,0000.0,0003.13,0007.45,0002.63
2023-02-15 21:36:00,,0822.6,4.99,0.00,23.3,23.2,00.0,32.0,25.1,07.6,0000.0,0003.14,0007.10,0002.67
2023-02-15 21:37:00,,0822.7,4.98,0.00,23.2,22.7,00.0,32.0,25.0,07.6,0000.0,0003.14,0005.93,0002.71
2023-02-15 21:38:00,,0822.7,5.01,0.00,23.2,22.2,00.0,32.0,24.9,07.6,0000.0,0003.14,0005.78,0002.74
2023-02-15 21:39:00,,0822.7,5.00,0.00,23.2,21.9,00.0,32.0,24.9,07.6,0000.0,0003.08,0005.39,0002.74
2023-02-15 21:40:00,,0822.7,4.98,0.00,23.1,21.6,00.0,32.0,24.8,07.6,0000.0,0003.08,0005.12,0002.74
2023-02-15 21:41:00,,0822.7,4.99,0.00,23.1,21.4,00.0,32.0,24.8,07.7,0000.0,0003.07,0005.42,0002.72
2023-02-15 21:42:00,,0822.7,5.01,0.00,23.0,21.3,00.0,32.0,24.7,07.7,0000.0,0003.08,0005.50,0002.71
2023-02-15 21:43:00,,0822.7,4.99,0.00,23.0,21.1,00.0,32.0,24.7,07.8,0000.0,0003.07,0005.62,0002.68
2023-02-15 21:44:00,,0822.7,4.99,0.00,23.0,21.4,00.0,31.9,24.7,07.8,0000.0,0003.01,0005.57,0002.64
2023-02-15 21:45:00,,0822.7,5.00,0.00,23.1,22.5,00.0,31.9,24.9,07.9,0000.0,0002.97,0005.49,0002.60
2023-02-15 21:46:00,,0822.7,4.96,0.00,23.2,23.4,00.0,31.9,25.1,07.8,0000.0,0002.93,0005.28,0002.55
2023-02-15 21:47:00,,0822.7,5.02,0.00,23.2,23.2,00.0,31.9,25.1,07.6,0000.0,0002.88,0005.28,0002.51
2023-02-15 21:48:00,,0822.7,5.02,0.00,23.2,22.6,00.0,32.0,25.0,07.6,0000.0,0002.85,0005.22,0002.47
2023-02-15 21:49:00,,0822.7,4.99,0.00,23.2,22.2,00.0,32.0,24.9,07.6,0000.0,0002.78,0005.20,0002.41
2023-02-15 21:50:00,,0822.8,5.00,0.00,23.1,21.8,00.0,32.0,24.8,07.5,0000.0,0002.74,0005.28,0002.36
2023-02-15 21:51:00,,0822.8,4.97,0.00,23.1,21.5,00.0,32.0,24.8,07.5,0000.0,0002.67,0005.10,0002.32
2023-02-15 21:52:00,,0822.8,4.99,0.00,23.0,21.3,00.0,32.0,24.7,07.5,0000.0,0002.61,0004.63,0002.28
2023-02-15 21:53:00,,0822.7,5.00,0.00,23.0,21.1,00.0,32.0,24.6,07.6,0000.0,0002.55,0004.49,0002.23
2023-02-15 21:54:00,,0822.8,5.01,0.00,22.9,21.4,00.0,31.9,24.6,07.6,0000.0,0002.51,0005.09,0002.18
2023-02-15 21:55:00,,0822.8,5.03,0.00,23.0,22.5,00.0,31.9,24.9,07.6,0000.0,0002.52,0005.26,0002.15
2023-02-15 21:56:00,,0822.9,5.08,0.00,23.2,23.4,00.0,31.9,25.1,07.5,0000.0,0002.50,0005.35,0002.13
2023-02-15 21:57:00,,0822.9,5.06,0.00,23.2,23.3,00.0,31.9,25.1,07.5,0000.0,0002.45,0005.25,0002.12
2023-02-15 21:58:00,,0822.9,5.00,0.00,23.2,22.8,00.0,32.0,25.0,07.5,0000.0,0002.44,0004.52,0002.11
2023-02-15 21:59:00,,0822.9,4.99,0.00,23.2,22.3,00.0,32.0,24.9,07.5,0000.0,0002.44,0004.51,0002.09
